Change the Weather History Date:

Tuesday, January 7, 2014

  Actual Average Record
Temperature  
Mean Temperature 19 °F 22 °F  
Max Temperature 28 °F 34 °F 64 °F (2003)
Min Temperature 10 °F 9 °F -27 °F (1968)
Degree Days  
Heating Degree Days 46 44  
Month to date heating degree days 371 308  
Since 1 July heating degree days 3394 3243  
Cooling Degree Days 0 0  
Month to date cooling degree days 0 0  
Year to date cooling degree days 0 0  
Moisture  
Dew Point 11 °F    
Average Humidity 72    
Maximum Humidity 80    
Minimum Humidity 63    
Precipitation  
Precipitation T in 0.01 in 0.35 in (1975)
Month to date precipitation 0.06 0.07  
Year to date precipitation 0.06 0.07  
Sea Level Pressure  
Sea Level Pressure 30.11 in    
Wind  
Wind Speed 6 mph (NNE)    
Max Wind Speed 17 mph    
Max Gust Speed 21 mph    
Visibility 10 miles    
Events Snow    
T = Trace of Precipitation, MM = Missing Value Source: NWS Daily Summary

Daily Weather History Graph

Daily Weather History Graph

Search for Another Location

Airport or City:

Trip Planner

Search our weather history database for the weather conditions in past years. The results will help you decide how hot, cold, wet, or windy it might be!

Date:

Astronomy

Jan. 07, 2014 Rise Set
Actual Time 7:20 AM MST 4:24 PM MST
Civil Twilight 6:48 AM MST 4:57 PM MST
Nautical Twilight 6:12 AM MST 5:33 PM MST
Astronomical Twilight 5:37 AM MST 6:08 PM MST
Moon 10:54 AM MST (1/7) No Moon Set
Length of Visible Light 10h 09m
Length of Day
9h 03m
Waxing Crescent, 46% of the Moon is Illuminated
Jan 7
Waxing Crescent
Jan 7
First Quarter
Jan 15
Full
Jan 23
Last Quarter
Jan 30
New

Hourly Weather History & Observations

Time (MST) Temp. Windchill Dew Point Humidity Pressure Visibility Wind Dir Wind Speed Gust Speed Precip Events Conditions
12:55 AM 10.0 °F - 1.0 °F 67% 30.01 in 10.0 mi Calm Calm - N/A   Scattered Clouds
1:55 AM 10.0 °F - 1.9 °F 70% 30.02 in 10.0 mi Calm Calm - N/A   Overcast
2:55 AM 10.9 °F - 3.0 °F 70% 30.01 in 10.0 mi Calm Calm - N/A   Overcast
3:55 AM 12.0 °F 2.7 °F 3.9 °F 70% 30.02 in 10.0 mi WSW 5.8 mph - N/A   Overcast
4:55 AM 10.9 °F -1.8 °F 3.9 °F 73% 30.03 in 10.0 mi West 9.2 mph - N/A   Clear
5:55 AM 12.0 °F 1.5 °F 5.0 °F 73% 30.04 in 10.0 mi West 6.9 mph - N/A   Clear
6:55 AM 17.1 °F 10.0 °F 8.1 °F 68% 30.06 in 10.0 mi West 4.6 mph - N/A   Clear
7:55 AM 17.1 °F 11.7 °F 9.0 °F 71% 30.08 in 10.0 mi WNW 3.5 mph - N/A   Clear
8:55 AM 21.9 °F 17.2 °F 12.0 °F 66% 30.11 in 10.0 mi West 3.5 mph - N/A   Clear
9:55 AM 27.0 °F 15.2 °F 16.0 °F 63% 30.12 in 10.0 mi NNW 15.0 mph - N/A   Clear
10:55 AM 26.1 °F 18.4 °F 16.0 °F 66% 30.13 in 10.0 mi NNW 6.9 mph - N/A   Clear
11:41 AM 26.6 °F 16.2 °F 17.6 °F 69% 30.01 in 10.0 mi NNW 11.5 mph - N/A   Mostly Cloudy
11:48 AM 26.6 °F 14.7 °F 17.6 °F 69% 30.01 in 10.0 mi North 15.0 mph - N/A   Scattered Clouds
11:55 AM 27.0 °F 14.7 °F 17.1 °F 66% 30.10 in 10.0 mi North 16.1 mph - N/A   Scattered Clouds
12:55 PM 26.1 °F 17.6 °F 17.1 °F 69% 30.11 in 10.0 mi North 8.1 mph - N/A   Scattered Clouds
1:55 PM 25.0 °F 17.1 °F 16.0 °F 69% 30.14 in 10.0 mi NNE 6.9 mph - N/A   Overcast
2:23 PM 24.8 °F 20.5 °F 15.8 °F 69% 30.05 in 10.0 mi NE 3.5 mph - N/A   Mostly Cloudy
2:55 PM 24.1 °F 17.0 °F 16.0 °F 71% 30.15 in 10.0 mi NNE 5.8 mph - N/A   Scattered Clouds
3:55 PM 21.9 °F 17.2 °F 15.1 °F 75% 30.16 in 10.0 mi ENE 3.5 mph - N/A   Clear
4:55 PM 19.9 °F 13.4 °F 14.0 °F 78% 30.18 in 10.0 mi ENE 4.6 mph - N/A   Overcast
5:55 PM 19.9 °F 14.9 °F 14.0 °F 78% 30.20 in 10.0 mi ESE 3.5 mph - N/A   Partly Cloudy
6:55 PM 19.0 °F 12.3 °F 14.0 °F 81% 30.21 in 10.0 mi East 4.6 mph - N/A   Overcast
7:55 PM 18.0 °F 6.9 °F 12.9 °F 81% 30.22 in 9.0 mi East 9.2 mph - N/A   Overcast
8:55 PM 17.1 °F 5.8 °F 12.0 °F 81% 30.22 in 7.0 mi East 9.2 mph - N/A   Overcast
9:55 PM 16.0 °F 5.3 °F 10.9 °F 81% 30.22 in 10.0 mi East 8.1 mph - 0.00 in   Overcast
10:55 PM 15.1 °F 3.3 °F 10.0 °F 80% 30.24 in 10.0 mi East 9.2 mph - N/A   Overcast
11:55 PM 14.0 °F 3.9 °F 10.0 °F 84% 30.23 in 6.0 mi East 6.9 mph - 0.00 in Snow Light Snow